Weather History for LKTB - February, 2014

Change the Weather History Date:

Monday, February 3, 2014

  Actual Average Record
Temperature  
Mean Temperature 32 °F -  
Max Temperature 38 °F 39 °F - ()
Min Temperature 26 °F 27 °F - ()
Degree Days  
Heating Degree Days 33    
Moisture  
Dew Point 27 °F    
Average Humidity 79    
Maximum Humidity 93    
Minimum Humidity 54    
Precipitation  
Precipitation 0.00 in 0.03 in - ()
Sea Level Pressure  
Sea Level Pressure 30.18 in    
Wind  
Wind Speed 7 mph ()    
Max Wind Speed 16 mph    
Max Gust Speed -    
Visibility 10.2 miles    
Events      
T = Trace of Precipitation, MM = Missing Value Source: Averaged Metar Reports

Daily Weather History Graph

Daily Weather History Graph

Search for Another Location

Airport or City:

Trip Planner

Search our weather history database for the weather conditions in past years. The results will help you decide how hot, cold, wet, or windy it might be!

Date:

Astronomy

Feb. 03, 2014 Rise Set
Actual Time 7:21 AM CET 4:53 PM CET
Civil Twilight 6:47 AM CET 5:27 PM CET
Nautical Twilight 6:09 AM CET 6:05 PM CET
Astronomical Twilight 5:32 AM CET 6:42 PM CET
Moon 8:48 AM CET (2/3) 9:52 PM CET (2/3)
Length of Visible Light 10h 39m
Length of Day
9h 31m
Waxing Crescent, 17% of the Moon is Illuminated
Feb 3
Waxing Crescent
Feb 6
First Quarter
Feb 15
Full
Feb 22
Last Quarter
Mar 1
New

Hourly Weather History & Observations

Time (CET) Temp. Windchill Dew Point Humidity Pressure Visibility Wind Dir Wind Speed Gust Speed Precip Events Conditions
12:00 AM 32 °F - 29 °F 82% 30.23 in 16 mi ESE 6.7 mph - -   Overcast
12:00 AM 32.0 °F 26.4 °F 28.4 °F 87% 30.18 in 6.2 mi ESE 5.8 mph - N/A   Overcast
12:30 AM 32.0 °F 27.5 °F 28.4 °F 87% 30.18 in 6.2 mi ESE 4.6 mph - N/A   Overcast
1:00 AM 31 °F - 29 °F 87% 30.24 in 16 mi ESE 6.7 mph - -   Partly Cloudy
1:00 AM 32.0 °F 27.5 °F 28.4 °F 87% 30.18 in 6.2 mi East 4.6 mph - N/A   Overcast
1:30 AM 32.0 °F 24.8 °F 28.4 °F 87% 30.18 in 6.2 mi ESE 8.1 mph - N/A   Overcast
2:00 AM 32 °F - 27 °F 76% 30.24 in 16 mi SE 6.7 mph - -   Overcast
2:00 AM 32.0 °F 26.4 °F 28.4 °F 87% 30.18 in 6.2 mi SE 5.8 mph - N/A   Overcast
2:30 AM 30.2 °F 24.3 °F 28.4 °F 93% 30.18 in 6.2 mi ESE 5.8 mph - N/A   Overcast
3:00 AM 30 °F - 27 °F 85% 30.25 in 16 mi East 4.5 mph - -   Overcast
3:00 AM 30.2 °F 25.4 °F 26.6 °F 86% 30.18 in 6.2 mi East 4.6 mph - N/A   Overcast
3:30 AM 30.2 °F 24.3 °F 28.4 °F 93% 30.18 in 6.2 mi East 5.8 mph - N/A   Overcast
4:00 AM 31 °F - 27 °F 80% 30.25 in 16 mi ESE 8.9 mph - -   Overcast
4:00 AM 30.2 °F 23.4 °F 28.4 °F 93% 30.18 in 6.2 mi East 6.9 mph - N/A   Overcast
4:30 AM 32.0 °F 23.6 °F 26.6 °F 80% 30.18 in 6.2 mi SE 10.4 mph - N/A   Overcast
5:00 AM 31 °F - 26 °F 74% 30.25 in 16 mi SE 11.2 mph - -   Overcast
5:00 AM 30.2 °F 20.8 °F 26.6 °F 86% 30.18 in 6.2 mi SE 11.5 mph - N/A   Overcast
5:30 AM 30.2 °F 21.3 °F 26.6 °F 86% 30.21 in 6.2 mi ESE 10.4 mph - N/A   Overcast
6:00 AM 31 °F - 26 °F 72% 30.26 in 22 mi ESE 8.9 mph - -   Overcast
6:00 AM 30.2 °F 21.3 °F 26.6 °F 86% 30.21 in 6.2 mi ESE 10.4 mph - N/A   Overcast
6:30 AM 30.2 °F 21.3 °F 24.8 °F 80% 30.21 in 6.2 mi SE 10.4 mph - N/A   Scattered Clouds
7:00 AM 29 °F - 24 °F 75% 30.26 in 16 mi ESE 8.9 mph - -   Scattered Clouds
7:00 AM 28.4 °F 20.4 °F 24.8 °F 86% 30.21 in - ESE 8.1 mph - N/A   Clear
7:30 AM 26.6 °F 18.2 °F 23.0 °F 86% 30.21 in 6.2 mi ESE 8.1 mph - N/A   Partly Cloudy
8:00 AM 28 °F - 24 °F 77% 30.27 in 16 mi East 6.7 mph - -   Partly Cloudy
8:00 AM 28.4 °F 20.4 °F 24.8 °F 86% 30.21 in 6.2 mi East 8.1 mph - N/A   Scattered Clouds
8:30 AM 30.2 °F 23.4 °F 26.6 °F 86% 30.21 in 6.2 mi East 6.9 mph - N/A   Scattered Clouds
9:00 AM 30 °F - 26 °F 78% 30.27 in 16 mi ESE 6.7 mph - -   Scattered Clouds
9:00 AM 30.2 °F 21.9 °F 26.6 °F 86% 30.21 in - ESE 9.2 mph - N/A   Clear
9:30 AM 32.0 °F 25.6 °F 26.6 °F 80% 30.21 in - ESE 6.9 mph - N/A   Clear
10:00 AM 32 °F - 26 °F 71% 30.25 in 16 mi SE 8.9 mph - -   Mostly Cloudy
10:00 AM 32.0 °F 24.8 °F 26.6 °F 80% 30.21 in 6.2 mi SE 8.1 mph - N/A   Mostly Cloudy
10:30 AM 32.0 °F 23.6 °F 26.6 °F 80% 30.21 in 6.2 mi SSE 10.4 mph - N/A   Mostly Cloudy
11:00 AM 33 °F - 27 °F 69% 30.25 in 16 mi SE 8.9 mph - -   Mostly Cloudy
11:00 AM 32.0 °F 24.2 °F 26.6 °F 80% 30.18 in 6.2 mi SE 9.2 mph - N/A   Mostly Cloudy
11:30 AM 32.0 °F 24.8 °F 26.6 °F 80% 30.18 in 6.2 mi SE 8.1 mph - N/A   Mostly Cloudy
12:00 PM 34 °F - 27 °F 66% 30.23 in 16 mi SE 11.2 mph - -   Mostly Cloudy
12:00 PM 33.8 °F 25.8 °F 28.4 °F 81% 30.18 in 6.2 mi SSE 10.4 mph - N/A   Mostly Cloudy
12:30 PM 33.8 °F 24.8 °F 26.6 °F 75% 30.18 in 6.2 mi SSE 12.7 mph - N/A   Mostly Cloudy
1:00 PM 35 °F - 27 °F 61% 30.22 in 16 mi SSE 8.9 mph - -   Mostly Cloudy
1:00 PM 33.8 °F 25.3 °F 26.6 °F 75% 30.18 in 6.2 mi SSE 11.5 mph - N/A   Mostly Cloudy
1:30 PM 35.6 °F 28.0 °F 28.4 °F 75% 30.15 in 6.2 mi SE 10.4 mph - N/A   Scattered Clouds
2:00 PM 36 °F - 28 °F 62% 30.19 in 16 mi SSE 8.9 mph - -   Scattered Clouds
2:00 PM 35.6 °F 29.2 °F 28.4 °F 75% 30.15 in 6.2 mi SSE 8.1 mph - N/A   Partly Cloudy
2:30 PM 37.4 °F 31.4 °F 28.4 °F 70% 30.12 in 6.2 mi SSE 8.1 mph - N/A   Partly Cloudy
3:00 PM 38 °F - 27 °F 54% 30.17 in 16 mi SSE 15.7 mph - -   Scattered Clouds
3:00 PM 37.4 °F 28.5 °F 28.4 °F 70% 30.12 in - SSE 15.0 mph - N/A   Clear
3:30 PM 37.4 °F 28.2 °F 26.6 °F 65% 30.12 in - SE 16.1 mph - N/A   Clear
4:00 PM 37 °F - 26 °F 54% 30.16 in 16 mi SE 11.2 mph - -   Scattered Clouds
4:00 PM 37.4 °F 28.5 °F 26.6 °F 65% 30.12 in - SE 15.0 mph - N/A   Clear
4:30 PM 35.6 °F 28.6 °F 26.6 °F 70% 30.12 in - ESE 9.2 mph - N/A   Clear
5:00 PM 35 °F - 26 °F 59% 30.16 in 19 mi ESE 11.2 mph - -   Scattered Clouds
5:00 PM 35.6 °F 27.1 °F 26.6 °F 70% 30.12 in - ESE 12.7 mph - N/A   Clear
5:30 PM 33.8 °F 25.8 °F 26.6 °F 75% 30.12 in - SE 10.4 mph - N/A   Clear
6:00 PM 32 °F - 25 °F 68% 30.17 in 16 mi ESE 8.9 mph - -   Scattered Clouds
6:00 PM 32.0 °F 24.2 °F 26.6 °F 80% 30.12 in - ESE 9.2 mph - N/A   Clear
6:30 PM 30.2 °F 23.4 °F 24.8 °F 80% 30.12 in - ESE 6.9 mph - N/A   Clear
7:00 PM 32 °F - 25 °F 66% 30.18 in 12 mi SE 6.7 mph - -   Clear
7:00 PM 32.0 °F 25.6 °F 26.6 °F 80% 30.12 in - SE 6.9 mph - N/A   Clear
7:30 PM 30.2 °F 25.4 °F 24.8 °F 80% 30.12 in - Variable 4.6 mph - N/A   Clear
8:00 PM 31 °F - 26 °F 75% 30.19 in 10 mi South 8.9 mph - -  
8:00 PM 30.2 °F 24.3 °F 26.6 °F 86% 30.12 in - South 5.8 mph - N/A   Clear
8:30 PM 30.2 °F 24.3 °F 26.6 °F 86% 30.12 in - South 5.8 mph - N/A   Clear
9:00 PM 29 °F - 25 °F 79% 30.19 in 10 mi South 4.5 mph - -  
9:00 PM 28.4 °F 22.2 °F 26.6 °F 93% 30.12 in - South 5.8 mph - N/A   Clear
9:30 PM 28.4 °F 23.3 °F 26.6 °F 93% 30.12 in - SSE 4.6 mph - N/A   Clear
10:00 PM 27 °F - 25 °F 88% 30.20 in 10 mi ESE 2.2 mph - -  
10:00 PM 26.6 °F 22.6 °F 24.8 °F 93% 30.12 in - East 3.5 mph - N/A   Clear
10:30 PM 28.4 °F 23.3 °F 24.8 °F 86% 30.12 in - ESE 4.6 mph - N/A   Clear
11:00 PM 28 °F - 24 °F 78% 30.20 in 10 mi East 4.5 mph - -  
11:00 PM 28.4 °F 22.2 °F 24.8 °F 86% 30.12 in - East 5.8 mph - N/A   Clear
11:30 PM 28.4 °F 21.2 °F 24.8 °F 86% 30.12 in - East 6.9 mph - N/A   Clear